Content
SEND FEEDBACK

Daily
Averages
Monthly
Summary
United States of America

ST. LOUIS - SAINT LOUIS UNIVERSITY, MISSOURI


Home > North America > United States > Missouri
Elevation: 580 feet     Latitude: 38 38N     Longitude: 090 14W

WEATHER
 
SELECT A DAY
Number of Records: 186,258;   Date Range: 1/1/95 - 8/30/14
 
SHARE

PRINT THIS DATA

[ ← Previous Day ]
WEATHER ALMANAC - JANUARY 25, 2013
[ Next Day → ]
[ °C ]   °F
Weather ElementAverageHighLow
Temperature34.3 °F43 °F (2:53 pm)27 °F (4:53 am)
Dewpoint15.9 °F19.9 °F (1:53 pm)7 °F (3:53 am)
Humidity47.2 %56 % (5:53 am)40 % (2:53 pm)
Barometer30.18 in30.25 in (11:53 pm)30.13 in (2:53 pm)
Wind Speed6.3 mph13.8 mph (12:53 pm)
Wind Gust18.4 mph (10:53 am)
Weather ElementAverage
Visibility10 mi
Wind DirectionSSW (199.6 °)

Weather ElementTotal
Precipitation---
Heating Degree Days30 (Base 65)
Averaged from 27 records on January 25, 2013
WEATHER CONDITIONS BREAKOUT
WIND DIRECTION BREAKOUT
WEATHER BY HOUR - JANUARY 25, 2013
[ °C ]   °F
Local TimeTemperatureDewpointHumidityBarometerVisibilityWind DirectionWind SpeedGust SpeedPrecipitationEventsConditions
1:53 AM28.0 °F8.1 °F43 %30.22 in10.0 miSE (130°)9.2 mphOvercast
2:53 AM28.0 °F8.1 °F43 %30.20 in10.0 miSSE (150°)6.9 mphOvercast
3:53 AM28.0 °F7.0 °F41 %30.20 in10.0 miCalmOvercast
4:29 AM28.4 °F10.4 °F47 %30.18 in10.0 miCalmOvercast
4:53 AM27.0 °F10.9 °F51 %30.16 in10.0 miSSE (160°)5.8 mphOvercast
5:53 AM27.0 °F12.9 °F56 %30.17 in10.0 miCalmOvercast
6:53 AM28.0 °F10.9 °F49 %30.16 in10.0 miCalmOvercast
7:53 AM28.0 °F12.0 °F51 %30.19 in10.0 miCalmOvercast
8:00 AM28.4 °F10.4 °F47 %30.17 in10.0 miCalmOvercast
8:53 AM30.0 °F12.9 °F49 %30.19 in10.0 miWest (260°)4.6 mphOvercast
9:53 AM33.1 °F18.0 °F54 %30.20 in10.0 miWNW (290°)10.4 mphOvercast
10:39 AM33.8 °F17.6 °F52 %30.17 in10.0 miWNW (290°)11.5 mphOvercast
10:53 AM35.1 °F19.0 °F52 %30.19 in10.0 miWNW (300°)12.7 mph18.4 mphOvercast
11:50 AM37.4 °F19.4 °F48 %30.15 in10.0 miWest (280°)10.4 mphScattered Clouds
11:53 AM37.0 °F19.0 °F48 %30.16 in10.0 miWest (280°)9.2 mphPartly Cloudy
12:53 PM39.9 °F19.0 °F43 %30.14 in10.0 miWNW (290°)13.8 mph18.4 mphClear
1:53 PM42.1 °F19.9 °F41 %30.14 in10.0 miWest (280°)11.5 mphClear
2:53 PM43.0 °F19.9 °F40 %30.13 in10.0 miWest (260°)8.1 mphClear
3:53 PM43.0 °F19.9 °F40 %30.13 in10.0 miWest (260°)9.2 mphClear
4:53 PM41.0 °F19.9 °F43 %30.14 in10.0 miWest (270°)8.1 mphClear
5:53 PM39.0 °F19.0 °F45 %30.16 in10.0 miWest (270°)4.6 mphClear
6:53 PM37.9 °F19.0 °F47 %30.17 in10.0 miWest (260°)4.6 mphClear
7:53 PM37.0 °F19.0 °F48 %30.17 in10.0 miWest (260°)5.8 mphClear
8:53 PM37.0 °F19.0 °F48 %30.19 in10.0 miWest (270°)6.9 mphClear
9:53 PM37.0 °F19.0 °F48 %30.21 in10.0 miWest (270°)5.8 mphClear
10:53 PM36.0 °F19.0 °F50 %30.23 in10.0 miWNW (290°)5.8 mphClear
11:53 PM36.0 °F19.0 °F50 %30.25 in10.0 miWest (270°)4.6 mphClear
Hourly data recorded from KCPS, located miles away from St. Louis - Saint Louis University, Missouri







STORIES FROM OUR PARTNERS